Time,TemperatureF,DewpointF,PressureIn,WindDirection,WindDirectionDegrees,WindSpeedMPH,WindSpeedGustMPH,Humidity,HourlyPrecipIn,Conditions,Clouds,dailyrainin,SolarRadiationWatts/m^2,SoftwareType,DateUTC
2013-09-13 00:02:00,71.0,43.0,-100.00,SW,226,3.0,5.0,36,0.00,,,0.00,0.000000,,2013-09-13 07:02:00,
2013-09-13 00:11:00,71.0,43.0,-100.00,SW,226,3.0,5.0,36,0.00,,,0.00,0.000000,,2013-09-13 07:11:00,
2013-09-13 00:43:00,69.0,40.0,-100.00,South,179,2.0,5.0,35,0.00,,,0.00,0.000000,,2013-09-13 07:43:00,
2013-09-13 00:52:00,69.0,40.0,-100.00,South,179,2.0,5.0,35,0.00,,,0.00,0.000000,,2013-09-13 07:52:00,
2013-09-13 01:01:00,69.0,40.0,-100.00,South,179,2.0,5.0,35,0.00,,,0.00,0.000000,,2013-09-13 08:01:00,
2013-09-13 01:11:00,69.0,40.0,-100.00,South,179,2.0,5.0,35,0.00,,,0.00,0.000000,,2013-09-13 08:11:00,
2013-09-13 01:42:00,69.0,42.0,-100.00,South,186,5.0,5.0,37,0.00,,,0.00,0.000000,,2013-09-13 08:42:00,
2013-09-13 01:52:00,69.0,42.0,-100.00,South,186,5.0,5.0,37,0.00,,,0.00,0.000000,,2013-09-13 08:52:00,
2013-09-13 02:02:00,69.0,42.0,-100.00,South,186,5.0,5.0,37,0.00,,,0.00,0.000000,,2013-09-13 09:02:00,
2013-09-13 02:11:00,69.0,42.0,-100.00,South,186,5.0,5.0,37,0.00,,,0.00,0.000000,,2013-09-13 09:11:00,
2013-09-13 02:43:00,68.0,41.0,-100.00,South,176,5.0,6.0,38,0.00,,,0.00,0.000000,,2013-09-13 09:43:00,
2013-09-13 02:54:00,68.0,41.0,-100.00,South,176,5.0,6.0,38,0.00,,,0.00,0.000000,,2013-09-13 09:54:00,
2013-09-13 03:03:00,68.0,41.0,-100.00,South,176,5.0,6.0,38,0.00,,,0.00,0.000000,,2013-09-13 10:03:00,
2013-09-13 03:12:00,68.0,41.0,-100.00,South,176,5.0,6.0,38,0.00,,,0.00,0.000000,,2013-09-13 10:12:00,
2013-09-13 03:42:00,66.0,40.0,-100.00,SSE,165,5.0,7.0,39,0.00,,,0.00,0.000000,,2013-09-13 10:42:00,
2013-09-13 03:53:00,66.0,40.0,-100.00,SSE,165,5.0,7.0,39,0.00,,,0.00,0.000000,,2013-09-13 10:53:00,
2013-09-13 04:03:00,66.0,40.0,-100.00,SSE,165,5.0,7.0,39,0.00,,,0.00,0.000000,,2013-09-13 11:03:00,
2013-09-13 04:12:00,66.0,40.0,-100.00,SSE,165,5.0,7.0,39,0.00,,,0.00,0.000000,,2013-09-13 11:12:00,
2013-09-13 04:42:00,67.0,41.0,-100.00,SSW,212,4.0,8.0,38,0.00,,,0.00,0.000000,,2013-09-13 11:42:00,
2013-09-13 04:52:00,67.0,41.0,-100.00,SSW,212,4.0,8.0,38,0.00,,,0.00,0.000000,,2013-09-13 11:52:00,
2013-09-13 05:01:00,67.0,41.0,-100.00,SSW,212,4.0,8.0,38,0.00,,,0.00,0.000000,,2013-09-13 12:01:00,
2013-09-13 05:11:00,67.0,41.0,-100.00,SSW,212,4.0,8.0,38,0.00,,,0.00,0.000000,,2013-09-13 12:11:00,
2013-09-13 05:42:00,66.0,42.0,-100.00,SW,229,3.0,7.0,42,0.00,,,0.00,0.000000,,2013-09-13 12:42:00,
2013-09-13 05:52:00,66.0,42.0,-100.00,SW,229,3.0,7.0,42,0.00,,,0.00,0.000000,,2013-09-13 12:52:00,
2013-09-13 06:02:00,66.0,42.0,-100.00,SW,229,3.0,7.0,42,0.00,,,0.00,0.000000,,2013-09-13 13:02:00,
2013-09-13 06:11:00,66.0,42.0,-100.00,SW,229,3.0,7.0,42,0.00,,,0.00,0.000000,,2013-09-13 13:11:00,
2013-09-13 06:42:00,64.0,42.0,-100.00,South,172,6.0,9.0,45,0.00,,,0.00,0.000000,,2013-09-13 13:42:00,
2013-09-13 06:52:00,64.0,42.0,-100.00,South,172,6.0,9.0,45,0.00,,,0.00,0.000000,,2013-09-13 13:52:00,
2013-09-13 07:02:00,64.0,42.0,-100.00,South,172,6.0,9.0,45,0.00,,,0.00,0.000000,,2013-09-13 14:02:00,
2013-09-13 07:11:00,64.0,42.0,-100.00,South,172,6.0,9.0,45,0.00,,,0.00,0.000000,,2013-09-13 14:11:00,
2013-09-13 07:42:00,65.0,43.0,-100.00,SW,221,8.0,15.0,44,0.00,,,0.00,17.000000,,2013-09-13 14:42:00,
2013-09-13 07:52:00,65.0,43.0,-100.00,SW,221,8.0,15.0,44,0.00,,,0.00,17.000000,,2013-09-13 14:52:00,
2013-09-13 08:02:00,65.0,43.0,-100.00,SW,221,8.0,15.0,44,0.00,,,0.00,17.000000,,2013-09-13 15:02:00,
2013-09-13 08:11:00,65.0,43.0,-100.00,SW,221,8.0,15.0,44,0.00,,,0.00,17.000000,,2013-09-13 15:11:00,
2013-09-13 08:43:00,68.0,45.0,-100.00,SW,214,8.0,14.0,43,0.00,,,0.00,173.000000,,2013-09-13 15:43:00,
2013-09-13 08:53:00,68.0,45.0,-100.00,SW,214,8.0,14.0,43,0.00,,,0.00,173.000000,,2013-09-13 15:53:00,
2013-09-13 09:03:00,68.0,45.0,-100.00,SW,214,8.0,14.0,43,0.00,,,0.00,173.000000,,2013-09-13 16:03:00,
2013-09-13 09:12:00,68.0,45.0,-100.00,SW,214,8.0,14.0,43,0.00,,,0.00,173.000000,,2013-09-13 16:12:00,
2013-09-13 09:43:00,72.0,46.0,-100.00,WSW,237,6.0,10.0,40,0.00,,,0.00,357.000000,,2013-09-13 16:43:00,
2013-09-13 09:54:00,72.0,46.0,-100.00,WSW,237,6.0,10.0,40,0.00,,,0.00,357.000000,,2013-09-13 16:54:00,
2013-09-13 10:03:00,72.0,46.0,-100.00,WSW,237,6.0,10.0,40,0.00,,,0.00,357.000000,,2013-09-13 17:03:00,
2013-09-13 10:13:00,72.0,46.0,-100.00,WSW,237,6.0,10.0,40,0.00,,,0.00,357.000000,,2013-09-13 17:13:00,
2013-09-13 10:44:00,75.0,46.0,-100.00,West,271,6.0,10.0,36,0.00,,,0.00,609.000000,,2013-09-13 17:44:00,
2013-09-13 10:53:00,75.0,46.0,-100.00,West,271,6.0,10.0,36,0.00,,,0.00,609.000000,,2013-09-13 17:53:00,
2013-09-13 11:02:00,75.0,46.0,-100.00,West,271,6.0,10.0,36,0.00,,,0.00,609.000000,,2013-09-13 18:02:00,
2013-09-13 11:12:00,75.0,46.0,-100.00,West,271,6.0,10.0,36,0.00,,,0.00,609.000000,,2013-09-13 18:12:00,
2013-09-13 11:42:00,75.0,45.0,-100.00,NW,312,5.0,11.0,35,0.00,,,0.00,480.000000,,2013-09-13 18:42:00,
2013-09-13 11:52:00,75.0,45.0,-100.00,NW,312,5.0,11.0,35,0.00,,,0.00,480.000000,,2013-09-13 18:52:00,
2013-09-13 12:01:00,75.0,45.0,-100.00,NW,312,5.0,11.0,35,0.00,,,0.00,480.000000,,2013-09-13 19:01:00,
2013-09-13 12:11:00,75.0,45.0,-100.00,NW,312,5.0,11.0,35,0.00,,,0.00,480.000000,,2013-09-13 19:11:00,
2013-09-13 12:43:00,77.0,44.0,-100.00,NW,307,9.0,14.0,31,0.00,,,0.00,530.000000,,2013-09-13 19:43:00,
2013-09-13 12:52:00,77.0,44.0,-100.00,NW,307,9.0,14.0,31,0.00,,,0.00,530.000000,,2013-09-13 19:52:00,
2013-09-13 13:02:00,77.0,44.0,-100.00,NW,307,9.0,14.0,31,0.00,,,0.00,530.000000,,2013-09-13 20:02:00,
2013-09-13 13:11:00,77.0,44.0,-100.00,NW,307,9.0,14.0,31,0.00,,,0.00,530.000000,,2013-09-13 20:11:00,
2013-09-13 13:43:00,77.0,44.0,-100.00,NW,313,7.0,11.0,31,0.00,,,0.00,390.000000,,2013-09-13 20:43:00,
2013-09-13 13:52:00,77.0,44.0,-100.00,NW,313,7.0,11.0,31,0.00,,,0.00,390.000000,,2013-09-13 20:52:00,
2013-09-13 14:02:00,77.0,44.0,-100.00,NW,313,7.0,11.0,31,0.00,,,0.00,390.000000,,2013-09-13 21:02:00,
2013-09-13 14:11:00,77.0,44.0,-100.00,NW,313,7.0,11.0,31,0.00,,,0.00,390.000000,,2013-09-13 21:11:00,
2013-09-13 14:44:00,80.0,42.0,-100.00,NNW,332,7.0,14.0,26,0.00,,,0.00,612.000000,,2013-09-13 21:44:00,
2013-09-13 14:54:00,80.0,42.0,-100.00,NNW,332,7.0,14.0,26,0.00,,,0.00,612.000000,,2013-09-13 21:54:00,
2013-09-13 15:04:00,80.0,42.0,-100.00,NNW,332,7.0,14.0,26,0.00,,,0.00,612.000000,,2013-09-13 22:04:00,
2013-09-13 15:13:00,80.0,42.0,-100.00,NNW,332,7.0,14.0,26,0.00,,,0.00,612.000000,,2013-09-13 22:13:00,
2013-09-13 15:43:00,83.0,40.0,-100.00,NNW,337,8.0,14.0,22,0.00,,,0.00,875.000000,,2013-09-13 22:43:00,
2013-09-13 15:53:00,83.0,40.0,-100.00,NNW,337,8.0,14.0,22,0.00,,,0.00,875.000000,,2013-09-13 22:53:00,
2013-09-13 16:03:00,83.0,40.0,-100.00,NNW,337,8.0,14.0,22,0.00,,,0.00,875.000000,,2013-09-13 23:03:00,
2013-09-13 16:12:00,83.0,40.0,-100.00,NNW,337,8.0,14.0,22,0.00,,,0.00,875.000000,,2013-09-13 23:12:00,
2013-09-13 16:43:00,85.0,35.0,-100.00,NNW,337,10.0,17.0,17,0.00,,,0.00,672.000000,,2013-09-13 23:43:00,
2013-09-13 16:52:00,85.0,35.0,-100.00,NNW,337,10.0,17.0,17,0.00,,,0.00,672.000000,,2013-09-13 23:52:00,
2013-09-13 17:01:00,85.0,35.0,-100.00,NNW,337,10.0,17.0,17,0.00,,,0.00,672.000000,,2013-09-14 00:01:00,
2013-09-13 17:11:00,85.0,35.0,-100.00,NNW,337,10.0,17.0,17,0.00,,,0.00,672.000000,,2013-09-14 00:11:00,
2013-09-13 17:42:00,82.0,36.0,-100.00,North,352,8.0,15.0,19,0.00,,,0.00,511.000000,,2013-09-14 00:42:00,
2013-09-13 17:52:00,82.0,36.0,-100.00,North,352,8.0,15.0,19,0.00,,,0.00,511.000000,,2013-09-14 00:52:00,
2013-09-13 18:02:00,82.0,36.0,-100.00,North,352,8.0,15.0,19,0.00,,,0.00,511.000000,,2013-09-14 01:02:00,
2013-09-13 18:11:00,82.0,36.0,-100.00,North,352,8.0,15.0,19,0.00,,,0.00,511.000000,,2013-09-14 01:11:00,
2013-09-13 18:42:00,78.0,42.0,-100.00,West,278,12.0,19.0,28,0.00,,,0.00,218.000000,,2013-09-14 01:42:00,
2013-09-13 18:52:00,78.0,42.0,-100.00,West,278,12.0,19.0,28,0.00,,,0.00,218.000000,,2013-09-14 01:52:00,
2013-09-13 19:02:00,78.0,42.0,-100.00,West,278,12.0,19.0,28,0.00,,,0.00,218.000000,,2013-09-14 02:02:00,
2013-09-13 19:11:00,78.0,42.0,-100.00,West,278,12.0,19.0,28,0.00,,,0.00,218.000000,,2013-09-14 02:11:00,
2013-09-13 19:42:00,76.0,42.0,-100.00,WNW,293,12.0,18.0,30,0.00,,,0.00,28.000000,,2013-09-14 02:42:00,
2013-09-13 19:52:00,76.0,42.0,-100.00,WNW,293,12.0,18.0,30,0.00,,,0.00,28.000000,,2013-09-14 02:52:00,
2013-09-13 20:02:00,76.0,42.0,-100.00,WNW,293,12.0,18.0,30,0.00,,,0.00,28.000000,,2013-09-14 03:02:00,
2013-09-13 20:11:00,76.0,42.0,-100.00,WNW,293,12.0,18.0,30,0.00,,,0.00,28.000000,,2013-09-14 03:11:00,
2013-09-13 20:44:00,72.0,44.0,-100.00,WSW,256,10.0,21.0,37,0.00,,,0.00,1.000000,,2013-09-14 03:44:00,
2013-09-13 20:54:00,72.0,44.0,-100.00,WSW,256,10.0,21.0,37,0.00,,,0.00,1.000000,,2013-09-14 03:54:00,
2013-09-13 21:04:00,72.0,44.0,-100.00,WSW,256,10.0,21.0,37,0.00,,,0.00,1.000000,,2013-09-14 04:04:00,
2013-09-13 21:13:00,72.0,44.0,-100.00,WSW,256,10.0,21.0,37,0.00,,,0.00,1.000000,,2013-09-14 04:13:00,
2013-09-13 21:43:00,70.0,43.0,-100.00,SW,221,4.0,11.0,38,0.00,,,0.00,0.000000,,2013-09-14 04:43:00,
2013-09-13 21:54:00,70.0,43.0,-100.00,SW,221,4.0,11.0,38,0.00,,,0.00,0.000000,,2013-09-14 04:54:00,
2013-09-13 22:03:00,70.0,43.0,-100.00,SW,221,4.0,11.0,38,0.00,,,0.00,0.000000,,2013-09-14 05:03:00,
2013-09-13 22:12:00,70.0,43.0,-100.00,SW,221,4.0,11.0,38,0.00,,,0.00,0.000000,,2013-09-14 05:12:00,
2013-09-13 22:43:00,68.0,45.0,-100.00,SSW,192,3.0,7.0,43,0.00,,,0.00,0.000000,,2013-09-14 05:43:00,
2013-09-13 22:52:00,68.0,45.0,-100.00,SSW,192,3.0,7.0,43,0.00,,,0.00,0.000000,,2013-09-14 05:52:00,
2013-09-13 23:02:00,68.0,45.0,-100.00,SSW,192,3.0,7.0,43,0.00,,,0.00,0.000000,,2013-09-14 06:02:00,
2013-09-13 23:12:00,68.0,45.0,-100.00,SSW,192,3.0,7.0,43,0.00,,,0.00,0.000000,,2013-09-14 06:12:00,
2013-09-13 23:42:00,66.0,44.0,-100.00,SE,141,5.0,6.0,45,0.00,,,0.00,0.000000,,2013-09-14 06:42:00,
2013-09-13 23:52:00,66.0,44.0,-100.00,SE,141,5.0,6.0,45,0.00,,,0.00,0.000000,,2013-09-14 06:52:00,